Galveston, TX

3:03 PM CDT on August 29, 2016 (GMT -0500)
Scholes International At Galveston

Weather History for KGLS - May, 2012

Change the Weather History Date:

Monday, May 21, 2012

  Actual Average Record
Temperature  
Mean Temperature 83 °F 79 °F  
Max Temperature 91 °F 84 °F 92 °F (2005)
Min Temperature 75 °F 74 °F 61 °F (1883)
Degree Days  
Heating Degree Days 0 0  
Month to date heating degree days 0 0  
Since 1 July heating degree days 630 1009  
Cooling Degree Days 18 14  
Month to date cooling degree days 294 243  
Year to date cooling degree days 848 486  
Growing Degree Days 33 (Base 50)    
Moisture  
Dew Point 69 °F    
Average Humidity 63    
Maximum Humidity 82    
Minimum Humidity 44    
Precipitation  
Precipitation 0.00 in 0.12 in 6.13 in (1916)
Month to date precipitation 3.54 2.33  
Year to date precipitation 20.82 15.31  
Snow  
Snow 0.00 in - - ()
Month to date snowfall 0.0  
Since 1 July snowfall 0.0 0.0  
Snow Depth 0.00 in    
Sea Level Pressure  
Sea Level Pressure 30.08 in    
Wind  
Wind Speed 7 mph (WNW)    
Max Wind Speed 13 mph    
Max Gust Speed 17 mph    
Visibility 10 miles    
Events      
T = Trace of Precipitation, MM = Missing Value Source: NWS Daily Summary

Daily Weather History Graph

Daily Weather History Graph

Search for Another Location

Airport or City:

Trip Planner

Search our weather history database for the weather conditions in past years. The results will help you decide how hot, cold, wet, or windy it might be!

Date:

Astronomy

May. 21, 2012 Rise Set
Actual Time 6:23 AM CDT 8:08 PM CDT
Civil Twilight 5:57 AM CDT 8:34 PM CDT
Nautical Twilight 5:26 AM CDT 9:06 PM CDT
Astronomical Twilight 4:52 AM CDT 9:39 PM CDT
Moon 6:49 AM CDT (5/21) 8:57 PM CDT (5/21)
Length of Visible Light 14h 37m
Length of Day
13h 44m
New Moon, 0% of the Moon is Illuminated
May 21
New Moon
May 28
First Quarter
Jun 4
Full
Jun 11
Last Quarter
Jun 19
New

Hourly Weather History & Observations

Time (CDT) Temp. Heat Index Dew Point Humidity Pressure Visibility Wind Dir Wind Speed Gust Speed Precip Events Conditions
12:52 AM 77.0 °F - 69.1 °F 76% 30.09 in 10.0 mi Calm Calm - N/A   Clear
1:52 AM 77.0 °F - 69.1 °F 76% 30.09 in 10.0 mi Calm Calm - N/A   Clear
2:52 AM 77.0 °F - 69.1 °F 76% 30.08 in 10.0 mi WSW 3.5 mph - N/A   Mostly Cloudy
3:52 AM 77.0 °F - 70.0 °F 79% 30.09 in 10.0 mi WNW 4.6 mph - N/A   Mostly Cloudy
4:52 AM 75.9 °F - 69.1 °F 79% 30.09 in 10.0 mi WNW 4.6 mph - N/A   Clear
5:52 AM 75.0 °F - 69.1 °F 82% 30.10 in 10.0 mi NW 5.8 mph - N/A   Clear
6:52 AM 75.9 °F - 69.1 °F 79% 30.11 in 10.0 mi NW 5.8 mph - N/A   Clear
7:52 AM 77.0 °F - 69.1 °F 76% 30.11 in 10.0 mi NW 6.9 mph - N/A   Scattered Clouds
8:52 AM 81.0 °F 84.4 °F 70.0 °F 69% 30.12 in 10.0 mi NNW 8.1 mph - N/A   Scattered Clouds
9:52 AM 84.0 °F 88.4 °F 70.0 °F 63% 30.12 in 10.0 mi North 9.2 mph - N/A   Clear
10:52 AM 84.9 °F 90.1 °F 71.1 °F 63% 30.12 in 10.0 mi North 8.1 mph - N/A   Clear
11:52 AM 86.0 °F 89.4 °F 68.0 °F 55% 30.12 in 10.0 mi North 9.2 mph - N/A   Scattered Clouds
12:52 PM 88.0 °F 90.3 °F 66.0 °F 48% 30.12 in 10.0 mi North 9.2 mph - N/A   Scattered Clouds
1:52 PM 88.0 °F 90.3 °F 66.0 °F 48% 30.10 in 10.0 mi North 9.2 mph - N/A   Scattered Clouds
2:52 PM 89.6 °F 92.2 °F 66.2 °F 46% 30.09 in 10.0 mi North 5.8 mph - N/A   Scattered Clouds
3:52 PM 91.0 °F 93.8 °F 66.0 °F 44% 30.07 in 10.0 mi Variable 3.5 mph - N/A   Clear
4:52 PM 86.0 °F 90.1 °F 69.1 °F 57% 30.05 in 10.0 mi South 9.2 mph - N/A   Clear
5:52 PM 86.0 °F 90.4 °F 69.8 °F 58% 30.03 in 10.0 mi SSW 9.2 mph - N/A   Clear
6:52 PM 84.0 °F 89.0 °F 71.1 °F 65% 30.01 in 10.0 mi SSW 11.5 mph - N/A   Clear
7:52 PM 82.9 °F 87.0 °F 70.0 °F 65% 30.03 in 10.0 mi SW 10.4 mph - N/A   Clear
8:52 PM 81.0 °F 84.4 °F 70.0 °F 69% 30.03 in 10.0 mi SW 8.1 mph - N/A   Clear
9:52 PM 80.1 °F 83.2 °F 70.0 °F 71% 30.04 in 10.0 mi SW 8.1 mph - N/A   Clear
10:52 PM 80.6 °F 83.9 °F 69.8 °F 70% 30.04 in 10.0 mi SW 9.2 mph - N/A   Clear
11:52 PM 80.1 °F 83.6 °F 71.1 °F 74% 30.04 in 10.0 mi WSW 6.9 mph - N/A   Clear